Regional Weather Roundup
Issued by NWS Kansas City/Pleasant Hill, MO

Home | Current Version | Previous Version | Text Only | Print | Product List | Glossary On
Versions: 1 2 3 4 5 6 7 8 9 10 11 12 13 14 15 16 17 18 19 20 21 22 23 24 25 26 27
000
ASUS43 KEAX 191210
RWREAX

WEATHER ROUNDUP FOR EASTERN KANSAS AND NORTHWEST MISSOURI
NATIONAL WEATHER SERVICE KANSAS CITY/PLEASANT HILL MO
600 AM CST SUN FEB 19 2017

KSZ040-057-103>105-MOZ028-029-037-043-191300-
...KANSAS CITY METROPOLITAN AREA...

CITY           SKY/WX    TMP DP  RH WIND       PRES   REMARKS
K.C. INTL      CLEAR     45  45 100 S9        29.94R FOG
6HR MIN TEMP:  44; 6HR MAX TEMP:  53;

K.C. DOWNTOWN  CLEAR     50  48  93 S3        29.94R
6HR MIN TEMP:  49; 6HR MAX TEMP:  57;

LEES SUMMIT    CLEAR     49  48  97 S8        29.95R
6HR MIN TEMP:  47; 6HR MAX TEMP:  55;

OLATHE - IXD   FOG       43  43 100 S6        29.95R VSB 1/4
6HR MIN TEMP:  40; 6HR MAX TEMP:  47;

OLATHE - OJC   FOG       43  43 100 S5        29.95R VSB 1/4
6HR MIN TEMP:  43; 6HR MAX TEMP:  52;

LAWRENCE       FOG       38  38 100 E3        29.94R VSB<1/4

$$

MOZ001>008-011>017-020>025-030>033-038>040-044>046-053-054-191300-
...NORTHERN AND CENTRAL MISSOURI...

CITY           SKY/WX    TMP DP  RH WIND       PRES   REMARKS
ST. JOSEPH     CLEAR     39  39 100 SE5       29.93S FOG
6HR MIN TEMP:  36; 6HR MAX TEMP:  45;

WARRENSBURG    FOG       39  39 100 S7        29.97R VSB 1/4 WCI  34
WHITEMAN AFB   FOG       43  43 100 S6        29.96S VSB 1/4
6HR MIN TEMP:  39; 6HR MAX TEMP:  52; 6HR PCP: TRACE;

CLINTON        FOG       36  36 100 CALM      29.98S VSB<1/4
SEDALIA        FOG       42  42 100 S5        29.99S VSB 1/4
6HR MIN TEMP:  42; 6HR MAX TEMP:  55;

WARSAW         NOT AVBL
CHILLICOTHE      N/A     37  35  92 CALM      29.96R
6HR MIN TEMP:  35; 6HR MAX TEMP:  42;

KIRKSVILLE     CLEAR     35  32  88 SW6       29.97R WCI  30
6HR MIN TEMP:  35; 6HR MAX TEMP:  44;


$$

MOZ041-047>049-056>058-063>065-088>090-097-191300-
...EASTERN AND SOUTHERN MISSOURI...

CITY           SKY/WX    TMP DP  RH WIND       PRES   REMARKS
ST. LOUIS INTL CLEAR     43  41  93 CALM      30.00R
6HR MIN TEMP:  41; 6HR MAX TEMP:  52;

SPIRIT OF STL  FOG       38  38 100 CALM      30.00R VSB 1/2
COLUMBIA       CLEAR     46  45  96 S6        30.00R FOG
JEFFERSON CITY FOG       38  38 100 CALM      30.01R VSB 1/4
ROLLA          FOG       42  42 100 S7        30.00R VSB 1/4
OSAGE BEACH    CLEAR     45  43  93 S3        30.02R FOG
SPRINGFIELD    CLEAR     45  43  93 E7        29.98R FOG
BRANSON        CLEAR     46  46 100 CALM      30.00R
JOPLIN         PTCLDY    45  45 100 E5        29.96R FOG
WEST PLAINS    FOG       43  43 100 CALM      30.03R VSB 1/4

$$

IAZ060-094-KSZ022-034>040-054-083-096-NEZ052-066-093-191300-
...KANSAS...SOUTHEAST NEBRASKA AND IOWA...

CITY           SKY/WX    TMP DP  RH WIND       PRES   REMARKS
TOPEKA         FOG       43  40  89 CALM      29.93R VSB 1/4
6HR MIN TEMP:  41; 6HR MAX TEMP:  56;

MANHATTAN      FOG       40  39  97 NE3       29.89S VSB 3/4
EMPORIA        FOG       42  42 100 S9        29.92R VSB 1/4
CHANUTE        FOG       43  42  97 S5        29.95R VSB 1/4
WICHITA        MOCLDY    44  44 100 S3        29.88R FOG
OMAHA          PTCLDY    42  35  76 SE10      29.87R
LINCOLN        MOCLDY    39  32  76 CALM      29.87S
FALLS CITY     CLOUDY    43  42  97 E5        29.90R FOG
LAMONI         CLOUDY    46  35  65 SE6       29.93R
DES MOINES     CLEAR     41  33  73 SE7       29.94R

$$





USA.gov is the U.S. government's official web portal to all federal, state and local government web resources and services.